TITAN 4B DEB, 35415

Orbit data source: Space-Track

TITAN 4B DEB, 35415 is space debris in LEO originally from a launch on Thu, 17 Aug 2000 UTC launched from the Air Force Western Test Range (AFWTR). Debris objects in space refer to the collection of defunct objects orbiting the Earth. Examples of debris include non-operational satellites, rocket bodies, and fragments generated from explosions, collisions, or faulty payload assembly.

Loading next visibility...
Identifier
35415, 2000-047D
Orbit
LEO
Country
Flag of USUS
Related business
Manufacturer
LMSS Denver
Mission
Spacecraft
Bus & Motor
Unknown
Mass
Unknown
Launch date (UTC)
2000-08-17 (26 years ago)
Launch vehicle
Unknown
Launch site
Air Force Western Test Range (AFWTR)
Object type
Payload
Rocket body
Debris
Shape & HBR
Unknown shape, 0.1 m
Radar Cross Section
Small (<0.1 m²)

Expand to show TLE details & history
Last TLE update: 3 days ago

TLE from 3 days ago
0 TITAN 4B DEB
1 35415U 00047D   26170.49715086  .00000181  00000-0  27908-4 0  9995
2 35415  67.9958 253.7686 0061552 336.1024  23.7262 14.93611565 81472
Epoch: 2026-06-19T11:55Z
TLE epoch observation values (Epoch: 2026-06-19T11:55:53.834Z)
Latitude
0.00004°
Longitude
167.06903°
Altitude
549.748 km
Speed
7.609 km/s
True Right ascension
16h 55m 04s
True Declination
0° 00' 00"
Sunlit
Object was in full shadow at epoch
Visualization orbit readout
Latitude
Unknown
Longitude
Unknown
Altitude
Unknown
Speed
Unknown
Apparent Right ascension
Unknown
Apparent Declination
Unknown
Sunlit
N/A
Visualization observer readout
Local Sidereal Time
23:21:08
Azimuth
Unknown
Elevation
Unknown
Doppler factor
Unknown
Orbital elements
Apogee altitude
627.719 km
Perigee altitude
542.001 km
Semi-major axis
6,962.997 km
Eccentricity
0.00616
Inclination
67.9958°
RAAN
253.7686°
Arg. of periapsis
336.1024°
True anomaly
24.01201°
Mean anomaly
23.7262°
Eccentric anomaly
23.86891°
Mean motion
3.7355 °/min
Orbital period
96.37 mins
BSTAR
0.000027908
Loading maneuver chart data...
Computing Atmospheric mass density...
Loading historical data...
Loading historical data...
Loading historical data...
Loading historical data...
Loading historical data...
Loading historical data...
Loading historical data...
Other satellites on launch #47 in the year 2000 (2000-08-17 UTC)

Documentation

Showing up to 5 results
|